Location: Qazi Observatory
(41.6337°N, 88.1517°W)
Time: 06:21:16
(UTC-06:00)

Amateur Radio Satellites - All Passes

Search period start: 26 February 2017 05:51
Search period end: 27 February 2017 05:51
Location: Qazi Observatory, 41.6337°N, 88.1517°W

Satellite Date Start Highest point End Downlink Frequencies (MHz)
Time Altitude Azimuth
ISS 26 Feb 06:07:09 06:07:55 11° 129° (SE) 06:08:42 437.550
KAITUO 1B 26 Feb 06:08:20 06:12:06 69° 100° (E) 06:15:49 145.475/437.950
XW-2A 26 Feb 06:10:11 06:11:10 11° 91° (E) 06:12:09 145.665 - 145.685
STRAND 1 26 Feb 06:10:39 06:15:43 65° 73° (ENE) 06:20:50 437.568
XW-2F 26 Feb 06:14:30 06:18:20 82° 283° (WNW) 06:22:07 145.980 - 146.000
BEESAT 3 26 Feb 06:19:13 06:23:01 49° 307° (NW) 06:26:53 437.485
XW-2D 26 Feb 06:19:43 06:23:31 66° 285° (WNW) 06:27:17 145.860 - 145.880
XW-2B 26 Feb 06:24:49 06:28:35 59° 286° (WNW) 06:32:19 145.730 - 145.750
Tancredo 1 26 Feb 06:28:57 06:31:17 19° 133° (SE) 06:33:39 437.200
XW-2C 26 Feb 06:33:35 06:37:16 45° 287° (WNW) 06:40:53 145.795 - 145.815
NUDT-PHONESAT 26 Feb 06:42:22 06:45:57 42° 287° (WNW) 06:49:29 437.300
SO-50 26 Feb 06:49:10 06:53:39 70° 240° (WSW) 06:58:06 436.795
LilacSat-2 26 Feb 06:51:43 06:55:00 27° 290° (WNW) 06:58:15 437.200
SEEDS 26 Feb 06:58:01 07:01:13 21° 94° (E) 07:04:24 437.485
BEESAT 2 26 Feb 06:59:28 07:03:16 45° 307° (NW) 07:07:09 435.950
UWE-3 26 Feb 07:06:28 07:08:22 12° 89° (E) 07:10:14 435.000/436.395/437.385
HO-68 26 Feb 07:10:33 07:17:28 49° 100° (E) 07:24:20 435.675
ZACube-1 26 Feb 07:25:57 07:27:15 11° 88° (E) 07:28:33 437.345
CUTE-I 26 Feb 07:26:20 07:30:48 27° 295° (WNW) 07:35:16 437.470
DOVE 4 26 Feb 07:27:27 07:30:30 17° 295° (WNW) 07:33:37 437.250
O/OREOS (USA 219) 26 Feb 07:31:39 07:35:55 37° 61° (ENE) 07:40:12 437.305
CUTE 1.7 + AOD 2 26 Feb 07:37:20 07:41:35 88° 282° (WNW) 07:45:47 437.475
ISS 26 Feb 07:40:36 07:43:54 88° 329° (NNW) 07:47:13 437.550
XW-2A 26 Feb 07:40:52 07:44:10 41° 287° (WNW) 07:47:25 145.665 - 145.685
PRISM 26 Feb 07:49:27 07:52:55 27° 69° (ENE) 07:56:23 437.425
STRAND 1 26 Feb 07:52:25 07:55:20 15° 269° (W) 07:58:17 437.568
Tancredo 1 26 Feb 08:04:08 08:07:19 51° 329° (NNW) 08:10:30 437.200
CUBEBUG 2 26 Feb 08:05:07 08:09:55 82° 101° (ESE) 08:14:37 437.445
AO-73 26 Feb 08:11:34 08:15:39 32° 96° (E) 08:19:37 145.935
UNISAT 6 26 Feb 08:16:58 08:20:37 24° 66° (ENE) 08:24:21 437.425
TIGRISAT 26 Feb 08:17:06 08:20:38 23° 66° (ENE) 08:24:14 435.000
Oscar 11 26 Feb 08:17:08 08:20:59 31° 96° (E) 08:24:48 .
AAUSAT CUBESAT 2 26 Feb 08:19:15 08:23:22 89° 93° (E) 08:27:29 437.432
SEEDS 26 Feb 08:33:15 08:36:57 31° 290° (WNW) 08:40:37 437.485
UWE-3 26 Feb 08:40:37 08:45:17 68° 285° (WNW) 08:49:50 435.000/436.395/437.385
FO-29 26 Feb 08:53:39 09:00:16 40° 65° (ENE) 09:07:22 435.910
YUBILEINY 26 Feb 08:54:23 09:01:34 29° 82° (E) 09:08:44 435.215
HO-68 26 Feb 08:58:42 09:04:55 34° 298° (WNW) 09:11:08 435.675
ZACube-1 26 Feb 08:59:28 09:04:02 71° 285° (WNW) 09:08:28 437.345
O/OREOS (USA 219) 26 Feb 09:11:35 09:15:05 22° 258° (WSW) 09:18:34 437.305
ISS 26 Feb 09:18:11 09:20:44 20° 343° (NNW) 09:23:18 437.550
POLYITAN 1 26 Feb 09:24:39 09:25:49 11° 61° (ENE) 09:26:58 437.675
PRISM 26 Feb 09:24:53 09:28:10 23° 264° (W) 09:31:27 437.425
QB50P2 26 Feb 09:26:56 09:28:46 13° 62° (ENE) 09:30:36 145.880/145.840
Tancredo 1 26 Feb 09:41:58 09:44:09 17° 348° (NNW) 09:46:20 437.200
DELFI C3 26 Feb 09:43:03 09:46:59 87° 283° (WNW) 09:50:54 145.870
CUBEBUG 2 26 Feb 09:44:02 09:45:49 12° 299° (WNW) 09:47:35 437.445
AO-73 26 Feb 09:48:00 09:51:43 25° 293° (WNW) 09:55:20 145.935
TIGRISAT 26 Feb 09:52:56 09:57:05 36° 263° (W) 10:01:21 435.000
UNISAT 6 26 Feb 09:53:03 09:57:08 34° 264° (W) 10:01:20 437.425
Oscar 11 26 Feb 09:53:30 09:56:58 24° 292° (WNW) 10:00:24 .
LO-87 26 Feb 10:07:57 10:10:39 20° 95° (E) 10:13:21 145.935 - 145.965
AIST 2D 26 Feb 10:13:28 10:16:56 55° 75° (ENE) 10:20:26 435.315
ESTCUBE 1 26 Feb 10:25:47 10:28:53 18° 93° (E) 10:31:58 437.505/2401.250
DUCHIFAT 1 26 Feb 10:27:05 10:31:03 42° 72° (ENE) 10:35:03 145.980
FO-29 26 Feb 10:38:21 10:45:06 45° 264° (W) 10:52:29 435.910
EO-79 26 Feb 10:38:54 10:43:06 69° 74° (ENE) 10:47:20 145.935-145.965
YUBILEINY 26 Feb 10:49:02 10:57:44 61° 282° (WNW) 11:06:27 435.215
AO-85 26 Feb 10:54:05 10:54:33 10° 37° (NE) 10:55:01 145.980
NANOSAT C BR1 26 Feb 10:55:11 10:59:23 84° 257° (WSW) 11:03:40 145.865
ISS 26 Feb 10:56:11 10:58:08 15° 3° (N) 11:00:04 437.550
POLYITAN 1 26 Feb 10:56:45 11:00:59 74° 259° (WSW) 11:05:16 437.675
QB50P2 26 Feb 10:59:49 11:04:01 63° 259° (W) 11:08:16 145.880/145.840
Gurwin Techsat 1B 26 Feb 11:14:52 11:15:48 10° 56° (NE) 11:16:44 435.225
Tancredo 1 26 Feb 11:19:21 11:21:23 15° 9° (N) 11:23:25 437.200
BUGSAT 1 26 Feb 11:19:37 11:23:35 55° 74° (ENE) 11:27:38 437.445
LO-87 26 Feb 11:41:06 11:44:05 25° 290° (WNW) 11:47:04 145.935 - 145.965
Oscar 19 26 Feb 11:55:43 12:00:33 42° 69° (ENE) 12:05:23 437.125/150
ESTCUBE 1 26 Feb 12:01:38 12:05:52 42° 289° (WNW) 12:10:04 437.505/2401.250
DUCHIFAT 1 26 Feb 12:04:14 12:06:54 16° 268° (W) 12:09:37 145.980
50 SAT 26 Feb 12:04:28 12:07:49 45° 99° (E) 12:11:09 437.505
DX 1 26 Feb 12:09:46 12:13:42 33° 97° (E) 12:17:39 434.975-435.025
UKube-1 26 Feb 12:19:38 12:23:27 30° 97° (E) 12:27:15 .
SPROUT 26 Feb 12:21:08 12:25:28 88° 96° (E) 12:29:47 437.525
VELOX 1 26 Feb 12:21:44 12:26:09 78° 286° (WNW) 12:30:35 145.980
AO-85 26 Feb 12:31:43 12:35:38 77° 56° (ENE) 12:39:36 145.980
ISS 26 Feb 12:32:29 12:35:24 28° 23° (NNE) 12:38:18 437.550
ITAMSAT 1 26 Feb 12:36:03 12:37:24 11° 57° (ENE) 12:38:45 435.822/435.867
AO-7 26 Feb 12:48:05 12:54:25 25° 53° (NE) 13:00:43 .
Gurwin Techsat 1B 26 Feb 12:49:31 12:54:49 74° 73° (ENE) 13:00:08 435.225
YUBILEINY 26 Feb 12:53:35 12:56:39 12° 305° (NW) 12:59:43 435.215
Tancredo 1 26 Feb 12:55:14 12:58:19 39° 28° (NNE) 13:01:22 437.200
BUGSAT 1 26 Feb 12:57:52 12:59:19 12° 270° (W) 13:00:46 437.445
BEESAT 3 26 Feb 12:59:38 13:01:32 13° 40° (NE) 13:03:26 437.485
Oscar 19 26 Feb 13:35:56 13:40:01 23° 266° (W) 13:44:06 437.125/150
50 SAT 26 Feb 13:39:34 13:40:31 11° 296° (WNW) 13:41:28 437.505
BEESAT 2 26 Feb 13:40:19 13:42:32 14° 41° (NE) 13:44:46 435.950
DX 1 26 Feb 13:46:18 13:49:43 23° 294° (WNW) 13:53:08 434.975-435.025
UKube-1 26 Feb 13:55:50 13:59:21 24° 293° (WNW) 14:02:50 .
ISS 26 Feb 14:08:49 14:11:58 44° 221° (SW) 14:15:06 437.550
ITAMSAT 1 26 Feb 14:10:46 14:15:59 79° 74° (ENE) 14:21:14 435.822/435.867
PCSat 26 Feb 14:26:08 14:29:30 17° 104° (ESE) 14:32:53 145.827
ITUPSAT 1 26 Feb 14:26:46 14:31:25 47° 100° (E) 14:36:00 437.325
Tancredo 1 26 Feb 14:31:46 14:34:28 25° 225° (SW) 14:37:08 437.200
BEESAT 26 Feb 14:32:27 14:37:10 55° 101° (E) 14:41:51 436.000
Gurwin Techsat 1B 26 Feb 14:32:41 14:35:18 14° 270° (W) 14:37:56 435.225
BEESAT 3 26 Feb 14:35:40 14:39:42 84° 239° (WSW) 14:43:41 437.485
AO-7 26 Feb 14:37:53 14:46:16 82° 252° (WSW) 14:54:41 .
MOZHAYETS 4 26 Feb 14:42:38 14:46:29 26° 95° (E) 14:50:18
KKS-1 26 Feb 15:06:34 15:07:35 11° 90° (E) 15:08:35 437.445
BEESAT 2 26 Feb 15:16:45 15:20:49 75° 239° (WSW) 15:24:50 435.950
NO-84 26 Feb 15:23:40 15:25:47 17° 125° (SE) 15:27:59 435.350 FM
CUBESAT XI-V 26 Feb 15:45:50 15:49:08 19° 93° (E) 15:52:25 437.345
ITAMSAT 1 26 Feb 15:53:54 15:56:02 12° 271° (W) 15:58:10 435.822/435.867
LilacSat-2 26 Feb 16:01:21 16:02:51 12° 64° (ENE) 16:04:20 437.200
ITUPSAT 1 26 Feb 16:05:27 16:08:53 20° 296° (WNW) 16:12:18 437.325
PCSat 26 Feb 16:06:55 16:12:18 67° 302° (WNW) 16:17:44 145.827
BEESAT 26 Feb 16:11:24 16:14:30 17° 297° (WNW) 16:17:34 436.000
MOZHAYETS 4 26 Feb 16:19:35 16:23:37 31° 291° (WNW) 16:27:38
RS-15 26 Feb 16:24:43 16:36:07 56° 112° (ESE) 16:47:58 29.354- 29.394
AO-7 26 Feb 16:35:29 16:40:10 16° 271° (W) 16:44:53 .
KKS-1 26 Feb 16:40:08 16:44:36 72° 286° (WNW) 16:49:04 437.445
KAITUO 1B 26 Feb 16:48:32 16:51:56 31° 71° (ENE) 16:55:21 145.475/437.950
DOVE 4 26 Feb 16:54:40 16:58:40 52° 74° (ENE) 17:02:46 437.250
XW-2F 26 Feb 16:55:17 16:58:57 45° 73° (ENE) 17:02:40 145.980 - 146.000
NO-84 26 Feb 16:59:57 17:03:04 45° 325° (NW) 17:06:29 435.350 FM
XW-2D 26 Feb 17:00:41 17:04:27 57° 75° (ENE) 17:08:15 145.860 - 145.880
XW-2B 26 Feb 17:05:44 17:09:32 64° 75° (ENE) 17:13:22 145.730 - 145.750
CUTE-I 26 Feb 17:07:47 17:13:04 67° 73° (ENE) 17:18:24 437.470
M-CUBED/EXP-1 PRIME 26 Feb 17:09:45 17:13:26 42° 105° (ESE) 17:17:22 437.505
STARS 26 Feb 17:10:19 17:14:46 76° 285° (WNW) 17:19:11 437.465
XW-2C 26 Feb 17:14:23 17:18:14 84° 76° (ENE) 17:22:07 145.795 - 145.815
NUDT-PHONESAT 26 Feb 17:21:19 17:25:05 83° 75° (ENE) 17:28:53 437.300
CUBESAT XI-V 26 Feb 17:22:22 17:26:41 41° 289° (WNW) 17:30:59 437.345
LilacSat-2 26 Feb 17:32:50 17:36:38 54° 260° (W) 17:40:29 437.200
HO-68 26 Feb 17:39:28 17:45:56 38° 63° (ENE) 17:52:24 435.675
SEEDS 26 Feb 17:50:26 17:53:04 16° 65° (ENE) 17:55:43 437.485
PCSat 26 Feb 17:54:08 17:56:45 13° 322° (NW) 17:59:23 145.827
UWE-3 26 Feb 18:04:41 18:05:52 11° 60° (ENE) 18:07:02 435.000/436.395/437.385
XW-2A 26 Feb 18:11:59 18:15:20 60° 75° (ENE) 18:18:43 145.665 - 145.685
STRAND 1 26 Feb 18:21:42 18:25:39 22° 93° (E) 18:29:33 437.568
KAITUO 1B 26 Feb 18:23:25 18:26:01 18° 267° (W) 18:28:38 145.475/437.950
CUTE 1.7 + AOD 2 26 Feb 18:29:37 18:33:52 65° 74° (ENE) 18:38:06 437.475
XW-2F 26 Feb 18:31:40 18:33:21 12° 269° (W) 18:35:02 145.980 - 146.000
DOVE 4 26 Feb 18:35:06 18:36:45 12° 270° (W) 18:38:26 437.250
RS-15 26 Feb 18:37:13 18:48:51 51° 316° (NW) 19:00:53 29.354- 29.394
NO-84 26 Feb 18:39:43 18:41:34 13° 346° (NNW) 18:43:29 435.350 FM
M-CUBED/EXP-1 PRIME 26 Feb 18:45:13 18:47:39 16° 298° (WNW) 18:50:11 437.505
CUTE-I 26 Feb 18:50:30 18:53:35 15° 270° (W) 18:56:41 437.470
CUBEBUG 2 26 Feb 19:02:53 19:07:18 67° 74° (ENE) 19:11:53 437.445
YUBILEINY 26 Feb 19:04:48 19:08:56 14° 57° (ENE) 19:13:02 435.215
AO-73 26 Feb 19:07:05 19:10:48 26° 68° (ENE) 19:14:34 145.935
AAUSAT CUBESAT 2 26 Feb 19:09:04 19:13:09 57° 74° (ENE) 19:17:14 437.432
Oscar 11 26 Feb 19:12:08 19:15:42 25° 68° (ENE) 19:19:16 .
SEEDS 26 Feb 19:24:20 19:28:24 45° 261° (W) 19:32:28 437.485
HO-68 26 Feb 19:26:47 19:33:31 43° 261° (W) 19:40:18 435.675
UWE-3 26 Feb 19:37:05 19:41:34 84° 260° (W) 19:46:11 435.000/436.395/437.385
ZACube-1 26 Feb 19:54:41 19:59:09 90° 77° (ENE) 20:03:45 437.345
STRAND 1 26 Feb 20:00:06 20:05:01 46° 290° (WNW) 20:09:54 437.568
CUTE 1.7 + AOD 2 26 Feb 20:09:01 20:10:05 11° 271° (W) 20:11:11 437.475
NO-84 26 Feb 20:19:15 20:20:39 12° 8° (N) 20:22:05 435.350 FM
DELFI C3 26 Feb 20:28:21 20:32:11 52° 74° (ENE) 20:36:02 145.870
CUBEBUG 2 26 Feb 20:42:51 20:44:25 12° 272° (W) 20:46:01 437.445
AO-73 26 Feb 20:42:58 20:46:54 30° 264° (W) 20:50:56 145.935
AAUSAT CUBESAT 2 26 Feb 20:47:31 20:48:57 12° 270° (W) 20:50:24 437.432
Oscar 11 26 Feb 20:47:54 20:51:42 29° 264° (W) 20:55:32 .
RS-15 26 Feb 20:55:44 21:05:20 25° 348° (NNW) 21:15:01 29.354- 29.394
YUBILEINY 26 Feb 20:58:52 21:07:36 69° 80° (E) 21:16:14 435.215
SO-50 26 Feb 21:03:25 21:07:41 36° 115° (ESE) 21:11:54 436.795
PRISM 26 Feb 21:05:00 21:08:53 42° 99° (E) 21:12:46 437.425
ESTCUBE 1 26 Feb 21:25:43 21:28:48 18° 65° (ENE) 21:31:53 437.505/2401.250
TIGRISAT 26 Feb 21:43:45 21:48:19 46° 99° (E) 21:52:45 435.000
UNISAT 6 26 Feb 21:43:56 21:48:31 50° 99° (E) 21:53:01 437.425
O/OREOS (USA 219) 26 Feb 21:44:06 21:48:17 41° 106° (ESE) 21:52:30 437.305
FO-29 26 Feb 21:48:20 21:55:04 34° 93° (E) 22:01:11 435.910
NO-84 26 Feb 21:56:06 21:59:27 25° 28° (NNE) 22:03:00 435.350 FM
DELFI C3 26 Feb 22:05:53 22:07:17 12° 270° (W) 22:08:41 145.870
LO-87 26 Feb 22:16:39 22:20:08 60° 258° (WSW) 22:23:39 145.935 - 145.965
EO-79 26 Feb 22:25:42 22:26:58 11° 90° (E) 22:28:14 145.935-145.965
50 SAT 26 Feb 22:39:16 22:41:47 19° 68° (ENE) 22:44:20 437.505
NANOSAT C BR1 26 Feb 22:40:29 22:43:03 15° 92° (E) 22:45:36 145.865
PRISM 26 Feb 22:41:17 22:43:51 16° 295° (WNW) 22:46:24 437.425
POLYITAN 1 26 Feb 22:42:18 22:45:14 18° 93° (E) 22:48:10 437.675
SO-50 26 Feb 22:44:05 22:48:11 29° 313° (NW) 22:52:14 436.795
QB50P2 26 Feb 22:45:06 22:48:20 21° 94° (E) 22:51:33 145.880/145.840
YUBILEINY 26 Feb 22:56:55 23:03:33 25° 279° (W) 23:10:09 435.215
ESTCUBE 1 26 Feb 23:00:56 23:05:16 45° 261° (W) 23:09:36 437.505/2401.250
DX 1 26 Feb 23:05:28 23:09:13 30° 68° (ENE) 23:12:59 434.975-435.025
AIST 2D 26 Feb 23:11:31 23:15:05 68° 101° (E) 23:18:35 435.315
PCSat 26 Feb 23:12:13 23:15:57 18° 42° (NE) 23:19:39 145.827
RS-15 26 Feb 23:13:04 23:23:27 29° 23° (NNE) 23:33:37 29.354- 29.394
SPROUT 26 Feb 23:14:17 23:18:30 66° 75° (ENE) 23:22:45 437.525
UKube-1 26 Feb 23:14:20 23:17:56 27° 68° (ENE) 23:21:32 .
VELOX 1 26 Feb 23:18:46 23:23:10 87° 259° (W) 23:27:34 145.980
TIGRISAT 26 Feb 23:21:17 23:24:36 19° 295° (WNW) 23:27:54 435.000
UNISAT 6 26 Feb 23:21:39 23:24:48 18° 296° (WNW) 23:27:56 437.425
O/OREOS (USA 219) 26 Feb 23:24:27 23:27:51 21° 304° (NW) 23:31:17 437.305
FO-29 26 Feb 23:33:00 23:40:16 49° 293° (WNW) 23:46:51 435.910
NO-84 26 Feb 23:33:20 23:37:26 65° 225° (SW) 23:41:45 435.350 FM
DUCHIFAT 1 26 Feb 23:46:00 23:50:18 77° 104° (ESE) 23:54:33 145.980
EO-79 26 Feb 23:58:53 00:03:09 64° 285° (WNW) 00:07:22 145.935-145.965
Oscar 19 27 Feb 00:08:30 00:11:09 14° 90° (E) 00:13:47 437.125/150
50 SAT 27 Feb 00:11:52 00:14:46 24° 264° (W) 00:17:41 437.505
NANOSAT C BR1 27 Feb 00:14:54 00:19:00 46° 288° (WNW) 00:23:04 145.865
POLYITAN 1 27 Feb 00:17:09 00:21:11 40° 289° (WNW) 00:25:11 437.675
QB50P2 27 Feb 00:20:18 00:24:12 34° 290° (WNW) 00:28:04 145.880/145.840
BUGSAT 1 27 Feb 00:36:02 00:40:19 85° 281° (W) 00:44:34 437.445
DX 1 27 Feb 00:41:51 00:45:23 24° 265° (W) 00:48:57 434.975-435.025
UKube-1 27 Feb 00:50:13 00:53:52 27° 264° (W) 00:57:33 .
SPROUT 27 Feb 00:53:59 00:54:51 11° 271° (W) 00:55:44 437.525
PCSat 27 Feb 00:54:34 01:00:01 82° 242° (WSW) 01:05:26 145.827
Gurwin Techsat 1B 27 Feb 01:05:58 01:10:33 29° 95° (E) 01:15:06 435.225
FO-29 27 Feb 01:22:38 01:23:20 10° 313° (NW) 01:24:02 435.910
DUCHIFAT 1 27 Feb 01:24:26 01:25:19 11° 299° (WNW) 01:26:14 145.980
RS-15 27 Feb 01:26:22 01:38:45 71° 52° (NE) 01:50:34 29.354- 29.394
ITUPSAT 1 27 Feb 01:33:24 01:38:06 56° 72° (ENE) 01:42:49 437.325
BEESAT 27 Feb 01:38:43 01:43:27 65° 73° (ENE) 01:48:13 436.000
MOZHAYETS 4 27 Feb 01:44:36 01:48:27 26° 67° (ENE) 01:52:19
Oscar 19 27 Feb 01:45:51 01:50:57 69° 286° (WNW) 01:56:02 437.125/150
KKS-1 27 Feb 02:05:06 02:06:29 11° 60° (ENE) 02:07:52 437.445
ITAMSAT 1 27 Feb 02:23:55 02:28:21 27° 95° (E) 02:32:44 435.822/435.867
STARS 27 Feb 02:34:57 02:35:24 10° 60° (ENE) 02:35:52 437.465
AO-7 27 Feb 02:39:50 02:47:09 33° 97° (E) 02:54:23 .
PCSat 27 Feb 02:41:51 02:42:29 10° 259° (W) 02:43:09 145.827
Gurwin Techsat 1B 27 Feb 02:45:40 02:50:32 37° 292° (WNW) 02:55:22 435.225
AO-85 27 Feb 02:46:36 02:50:17 24° 114° (ESE) 02:53:46 145.980
CUBESAT XI-V 27 Feb 02:49:25 02:52:50 21° 65° (ENE) 02:56:14 437.345
ITUPSAT 1 27 Feb 03:13:24 03:16:16 16° 269° (W) 03:19:09 437.325
BEESAT 27 Feb 03:19:22 03:21:40 13° 270° (W) 03:23:59 436.000
MOZHAYETS 4 27 Feb 03:21:21 03:25:29 32° 264° (W) 03:29:39
KKS-1 27 Feb 03:37:59 03:42:24 77° 257° (WSW) 03:46:51 437.445
RS-15 27 Feb 03:39:50 03:50:20 36° 255° (WSW) 04:00:29 29.354- 29.394
M-CUBED/EXP-1 PRIME 27 Feb 03:56:41 03:59:51 50° 68° (ENE) 04:03:02 437.505
ITAMSAT 1 27 Feb 04:03:04 04:07:53 38° 292° (WNW) 04:12:39 435.822/435.867
STARS 27 Feb 04:06:41 04:11:03 84° 256° (WSW) 04:15:28 437.465
CUBESAT XI-V 27 Feb 04:25:29 04:29:54 42° 262° (W) 04:34:20 437.345
AO-85 27 Feb 04:26:22 04:30:32 37° 309° (NW) 04:34:27 145.980
BEESAT 3 27 Feb 04:27:22 04:29:31 14° 110° (ESE) 04:31:41 437.485
AO-7 27 Feb 04:32:10 04:40:13 57° 295° (WNW) 04:48:14 .
DOVE 4 27 Feb 04:53:20 04:56:21 16° 92° (E) 04:59:25 437.250
LilacSat-2 27 Feb 05:07:01 05:09:20 15° 92° (E) 05:11:38 437.200
BEESAT 2 27 Feb 05:09:27 05:12:02 17° 111° (ESE) 05:14:40 435.950
CUTE-I 27 Feb 05:25:07 05:29:36 26° 95° (E) 05:34:04 437.470
SO-50 27 Feb 05:34:20 05:38:28 34° 49° (NE) 05:42:34 436.795
STRAND 1 27 Feb 05:37:32 05:42:03 32° 67° (ENE) 05:46:36 437.568
